• In Russia
  • List of Countries
  • For 7 days
  • Water Temperature
  • Satellite Maps
  • Weather Map
  • Weather Widgets
  • user-avatar
    Login

    Hourly Weather Mafeteng

    Today, 16 October, Tuesday

    Time Temperature Precipitation Wind Pressure Humidity
    00:00 +15°C° 0 mm 2 mps 626 mmHg 33%
    01:00 +14°C° 0 mm 1 mps 626 mmHg 35%
    02:00 +13°C° 0 mm 1 mps 625 mmHg 36%
    03:00 +13°C° 0 mm 1 mps 625 mmHg 38%
    04:00 +12°C° 0 mm 1 mps 625 mmHg 39%
    05:00 +12°C° 0 mm 1 mps 625 mmHg 40%
    06:00 +14°C° 0 mm 1 mps 626 mmHg 36%
    07:00 +16°C° 0 mm 1 mps 627 mmHg 31%
    08:00 +19°C° 0 mm 1 mps 628 mmHg 26%
    09:00 +19°C° 0 mm 2 mps 628 mmHg 22%
    10:00 +21°C° 0 mm 4 mps 628 mmHg 19%
    11:00 +22°C° 0 mm 5 mps 628 mmHg 15%
    12:00 +23°C° 0 mm 5 mps 628 mmHg 14%
    13:00 +24°C° 0 mm 6 mps 628 mmHg 13%
    14:00 +26°C° 0 mm 7 mps 628 mmHg 12%
    15:00 +24°C° 0 mm 6 mps 627 mmHg 13%
    16:00 +24°C° 0 mm 6 mps 627 mmHg 13%
    17:00 +24°C° 0 mm 6 mps 626 mmHg 13%
    18:00 +22°C° 0 mm 4 mps 626 mmHg 17%
    19:00 +20°C° 0 mm 3 mps 626 mmHg 20%
    20:00 +18°C° 0 mm 2 mps 626 mmHg 23%
    21:00 +19°C° 0 mm 1 mps 626 mmHg 26%
    22:00 +18°C° 0 mm 1 mps 626 mmHg 29%
    23:00 +18°C° 0 mm 1 mps 626 mmHg 31%

    Tomorrow, 17 October, Wednesday

    Time Temperature Precipitation Wind Pressure Humidity
    00:00 +16°C° 0 mm 1 mps 625 mmHg 34%
    01:00 +15°C° 0 mm 1 mps 625 mmHg 36%
    02:00 +15°C° 0 mm 1 mps 624 mmHg 38%
    03:00 +14°C° 0 mm 1 mps 624 mmHg 41%
    04:00 +14°C° 0 mm 1 mps 624 mmHg 44%
    05:00 +13°C° 0 mm 1 mps 624 mmHg 47%
    06:00 +14°C° 0 mm 1 mps 624 mmHg 45%
    07:00 +15°C° 0 mm 1 mps 625 mmHg 43%
    08:00 +18°C° 0 mm 1 mps 626 mmHg 40%
    09:00 +18°C° 0 mm 2 mps 626 mmHg 36%
    10:00 +19°C° 0 mm 2 mps 626 mmHg 33%
    11:00 +20°C° 0 mm 3 mps 626 mmHg 29%
    12:00 +21°C° 0 mm 4 mps 626 mmHg 28%
    13:00 +22°C° 0 mm 5 mps 626 mmHg 27%
    14:00 +23°C° 0 mm 6 mps 626 mmHg 26%
    15:00 +22°C° 0 mm 6 mps 626 mmHg 27%
    16:00 +22°C° 0 mm 6 mps 625 mmHg 29%
    17:00 +21°C° 0 mm 7 mps 625 mmHg 31%
    18:00 +19°C° 0 mm 5 mps 625 mmHg 35%
    19:00 +18°C° 0 mm 4 mps 625 mmHg 40%
    20:00 +16°C° 0 mm 3 mps 626 mmHg 44%
    21:00 +14°C° 0 mm 3 mps 626 mmHg 48%
    22:00 +15°C° 0 mm 2 mps 626 mmHg 53%
    23:00 +14°C° 0 mm 2 mps 626 mmHg 57%

    Day after tomorrow, 18 October, Thursday

    Time Temperature Precipitation Wind Pressure Humidity
    00:00 +13°C° 0 mm 2 mps 625 mmHg 60%
    01:00 +12°C° 0 mm 2 mps 625 mmHg 63%
    02:00 +12°C° 0 mm 1 mps 624 mmHg 66%
    03:00 +11°C° 0 mm 1 mps 624 mmHg 69%
    04:00 +11°C° 0 mm 1 mps 624 mmHg 72%
    05:00 +10°C° 0 mm 1 mps 624 mmHg 74%
    06:00 +12°C° 0 mm 1 mps 625 mmHg 66%
    07:00 +13°C° 0 mm 1 mps 625 mmHg 57%
    08:00 +15°C° 0 mm 1 mps 626 mmHg 48%
    09:00 +18°C° 0 mm 1 mps 627 mmHg 39%
    10:00 +20°C° 0 mm 1 mps 627 mmHg 29%
    11:00 +21°C° 0 mm 2 mps 627 mmHg 20%
    12:00 +23°C° 0 mm 2 mps 627 mmHg 17%
    13:00 +24°C° 0 mm 3 mps 626 mmHg 15%
    14:00 +25°C° 0 mm 3 mps 626 mmHg 13%
    15:00 +25°C° 0 mm 4 mps 626 mmHg 12%
    16:00 +25°C° 0 mm 4 mps 626 mmHg 12%
    17:00 +25°C° 0 mm 4 mps 625 mmHg 12%
    18:00 +22°C° 0 mm 3 mps 625 mmHg 14%
    19:00 +20°C° 0 mm 2 mps 625 mmHg 16%
    20:00 +19°C° 0 mm 2 mps 625 mmHg 18%
    21:00 +19°C° 0 mm 1 mps 625 mmHg 20%
    22:00 +18°C° 0 mm 1 mps 625 mmHg 23%
    23:00 +15°C° 0 mm 0 mps 625 mmHg 25%

    19 October, Friday

    Time Temperature Precipitation Wind Pressure Humidity
    00:00 +15°C° 0 mm 0 mps 624 mmHg 25%
    01:00 +14°C° 0 mm 0 mps 624 mmHg 25%
    02:00 +14°C° 0 mm 0 mps 624 mmHg 25%
    03:00 +14°C° 0 mm 1 mps 624 mmHg 24%
    04:00 +14°C° 0 mm 1 mps 624 mmHg 24%
    05:00 +14°C° 0 mm 1 mps 624 mmHg 24%
    06:00 +16°C° 0 mm 1 mps 625 mmHg 21%
    07:00 +20°C° 0 mm 1 mps 626 mmHg 18%
    08:00 +23°C° 0 mm 1 mps 627 mmHg 16%
    09:00 +24°C° 0 mm 2 mps 627 mmHg 15%
    10:00 +26°C° 0 mm 2 mps 628 mmHg 15%
    11:00 +27°C° 0 mm 2 mps 628 mmHg 15%
    12:00 +28°C° 0 mm 3 mps 628 mmHg 14%
    13:00 +29°C° 0 mm 4 mps 627 mmHg 13%
    14:00 +30°C° 0 mm 5 mps 627 mmHg 12%
    15:00 +30°C° 0 mm 5 mps 627 mmHg 13%
    16:00 +30°C° 0 mm 5 mps 627 mmHg 13%
    17:00 +30°C° 0 mm 5 mps 626 mmHg 13%
    18:00 +28°C° 0 mm 4 mps 626 mmHg 15%
    19:00 +27°C° 0 mm 3 mps 626 mmHg 17%
    20:00 +25°C° 0 mm 2 mps 626 mmHg 19%
    21:00 +24°C° 0 mm 2 mps 625 mmHg 20%
    22:00 +23°C° 0 mm 2 mps 625 mmHg 22%
    23:00 +21°C° 0 mm 2 mps 625 mmHg 23%

    20 October, Saturday

    Time Temperature Precipitation Wind Pressure Humidity
    00:00 +20°C° 0 mm 2 mps 624 mmHg 30%
    01:00 +19°C° 0 mm 2 mps 624 mmHg 38%
    02:00 +17°C° 0 mm 2 mps 623 mmHg 45%
    03:00 +17°C° 0 mm 2 mps 624 mmHg 51%
    04:00 +17°C° 0 mm 3 mps 624 mmHg 56%
    05:00 +16°C° 0 mm 3 mps 624 mmHg 62%
    06:00 +15°C° 0 mm 4 mps 625 mmHg 60%
    07:00 +17°C° 0 mm 4 mps 625 mmHg 59%
    08:00 +16°C° 0 mm 5 mps 626 mmHg 57%
    09:00 +19°C° 0 mm 6 mps 627 mmHg 46%
    10:00 +20°C° 0 mm 8 mps 627 mmHg 36%
    11:00 +21°C° 0 mm 9 mps 628 mmHg 25%
    12:00 +21°C° 0 mm 9 mps 628 mmHg 21%
    13:00 +21°C° 0 mm 10 mps 628 mmHg 17%
    14:00 +21°C° 0 mm 10 mps 628 mmHg 13%
    15:00 +18°C° 0 mm 10 mps 628 mmHg 17%
    16:00 +16°C° 0 mm 10 mps 628 mmHg 21%
    17:00 +15°C° 0 mm 9 mps 628 mmHg 26%
    18:00 +11°C° 0 mm 9 mps 628 mmHg 31%
    19:00 +8°C° 0 mm 9 mps 628 mmHg 35%
    20:00 +6°C° 0 mm 8 mps 628 mmHg 40%
    21:00 +5°C° 0 mm 8 mps 628 mmHg 41%
    22:00 +5°C° 0 mm 8 mps 629 mmHg 43%
    23:00 +4°C° 0 mm 8 mps 629 mmHg 44%

    21 October, Sunday

    Time Temperature Precipitation Wind Pressure Humidity
    00:00 +4°C° 0 mm 8 mps 629 mmHg 44%
    01:00 +3°C° 0 mm 7 mps 629 mmHg 45%
    02:00 +3°C° 0 mm 7 mps 629 mmHg 45%
    03:00 +2°C° 0 mm 6 mps 629 mmHg 47%
    04:00 +2°C° 0 mm 5 mps 629 mmHg 48%
    05:00 +1°C° 0 mm 5 mps 629 mmHg 49%
    06:00 +3°C° 0 mm 5 mps 630 mmHg 44%
    07:00 +5°C° 0 mm 5 mps 630 mmHg 39%
    08:00 +6°C° 0 mm 5 mps 631 mmHg 34%
    09:00 +8°C° 0 mm 5 mps 631 mmHg 28%
    10:00 +10°C° 0 mm 5 mps 632 mmHg 21%
    11:00 +14°C° 0 mm 5 mps 632 mmHg 15%
    12:00 +15°C° 0 mm 5 mps 632 mmHg 13%
    13:00 +16°C° 0 mm 5 mps 632 mmHg 11%
    14:00 +17°C° 0 mm 5 mps 632 mmHg 9%
    15:00 +17°C° 0 mm 5 mps 632 mmHg 10%
    16:00 +17°C° 0 mm 5 mps 632 mmHg 10%
    17:00 +16°C° 0 mm 5 mps 631 mmHg 11%
    18:00 +15°C° 0 mm 5 mps 631 mmHg 13%
    19:00 +13°C° 0 mm 4 mps 631 mmHg 16%
    20:00 +11°C° 0 mm 4 mps 631 mmHg 19%
    21:00 +10°C° 0 mm 4 mps 631 mmHg 22%
    22:00 +9°C° 0 mm 3 mps 631 mmHg 25%
    23:00 +8°C° 0 mm 3 mps 631 mmHg 29%
    Show more